RH
9 8 8 8 8 8 7 6 7 10 12 13 14 13 13 14 15 16 15 15 16 16 16 16 17 18 18 18 19 20 20 19 18 17 15 12 11 11 14 14 13 14 14 14 15 15 14 13 13 14 19 21 20 18 23 27 26 25 25 23 23 24 25 25 25 27 30 33 39 41 32 26 29 31 33 42 47 40 41 44 42 46 52 55 52 49 51 52
10 9 8 8 8 7 7 6 7 10 12 13 13 13 14 16 16 16 17 16 16 17 17 18 20 20 22 22 21 20 20 18 16 15 14 13 11 11 13 13 13 14 13 14 15 15 15 14 13 14 19 24 24 22 23 25 26 25 25 23 22 24 24 25 23 24 30 30 30 33 29 23 23 27 28 35 45 46 43 39 41 47 54 58 52 50 52 51
9 10 9 8 8 8 7 6 7 10 11 13 13 13 15 17 17 17 18 18 17 17 19 20 22 23 24 24 23 22 20 18 15 14 15 14 12 12 13 13 13 13 13 15 16 16 15 15 15 15 19 23 24 25 24 25 25 24 24 22 19 22 22 22 23 22 27 28 27 29 28 24 22 25 28 31 39 44 40 36 40 48 56 58 51 51 53 51
8 9 10 10 8 7 7 7 8 10 11 12 12 14 17 18 18 18 19 19 19 19 20 23 25 25 26 25 26 26 23 20 17 14 15 15 13 13 13 13 13 13 14 16 17 17 15 16 18 19 21 22 22 23 24 23 22 22 23 21 19 21 21 19 21 23 26 25 22 23 24 23 21 28 31 30 37 41 41 41 41 49 57 55 50 52 53 51
7 8 9 10 9 8 8 7 8 10 11 12 13 16 18 19 19 19 20 21 21 20 21 24 27 28 27 26 26 26 24 22 20 17 15 14 13 13 13 13 13 13 15 17 19 19 19 20 21 21 21 21 21 21 21 20 21 22 20 19 19 19 20 19 20 21 23 25 24 22 22 21 22 28 27 26 35 38 42 46 43 50 56 53 51 51 51 51
7 7 8 10 10 8 8 8 9 10 11 12 14 18 19 20 20 19 20 20 22 22 23 27 29 30 28 26 24 23 24 23 21 19 15 13 13 12 13 13 13 15 18 20 21 21 22 23 22 21 21 20 21 20 19 20 20 20 19 19 18 18 19 18 20 20 21 24 24 21 19 21 24 25 25 29 34 33 43 50 46 51 55 55 54 49 46 48
8 7 7 9 10 10 9 8 9 10 11 12 15 19 20 20 20 19 19 21 22 23 26 31 33 33 31 28 26 24 24 23 21 18 14 13 13 12 13 14 16 19 21 22 22 21 21 21 21 20 20 19 20 19 18 19 19 19 18 18 18 18 19 18 18 19 20 22 19 18 18 19 23 24 29 34 31 30 44 52 51 53 55 57 55 47 46 47
10 9 8 8 9 10 9 9 9 10 11 12 17 20 21 21 21 19 20 21 22 27 32 35 35 32 30 30 29 26 23 23 21 17 14 12 13 13 14 15 18 21 22 22 21 21 21 20 21 19 19 19 18 18 16 16 17 18 17 17 18 18 18 18 18 17 20 24 19 17 18 18 22 26 29 31 27 29 42 50 54 55 56 59 55 50 50 48
13 10 9 8 8 10 10 10 9 10 11 12 17 21 21 21 21 20 21 22 26 32 36 37 33 29 28 29 29 25 21 23 23 18 13 12 13 14 15 16 18 21 21 21 20 20 21 20 20 19 18 18 18 17 16 16 16 17 18 18 18 18 18 17 17 17 20 24 21 19 20 22 28 29 29 30 27 29 39 49 57 58 57 57 55 53 54 53
17 15 12 10 8 9 10 10 9 9 11 12 17 21 22 21 21 20 21 24 28 33 35 35 31 29 31 29 29 26 21 23 23 18 13 12 12 13 17 17 17 20 20 20 20 20 20 20 20 19 18 17 18 16 15 17 17 17 17 18 18 17 18 16 16 17 18 21 18 19 23 28 33 30 27 29 26 27 36 48 59 61 58 54 53 50 46 46
21 20 19 15 11 9 8 10 10 9 10 12 17 21 22 22 21 20 22 26 29 32 33 32 30 31 33 31 31 27 21 21 20 16 14 14 13 13 17 17 16 19 18 19 21 20 20 19 19 19 18 17 17 16 15 15 16 17 16 17 17 16 17 16 17 17 19 25 22 19 23 29 37 34 28 27 24 25 34 47 56 58 56 51 50 48 40 39
21 20 21 20 17 13 10 9 9 10 10 12 16 22 23 22 22 21 23 25 28 31 32 33 32 34 35 32 31 28 23 21 18 17 19 18 16 15 16 15 15 17 16 18 19 17 18 19 19 18 18 17 16 15 15 15 14 16 16 16 16 16 16 15 16 15 18 30 29 20 20 28 37 37 30 27 25 24 30 41 49 53 54 48 47 48 47 46
18 18 18 19 20 19 16 12 10 9 10 12 16 22 24 22 23 26 28 30 34 37 39 40 40 39 38 33 31 30 27 22 18 20 21 20 19 17 18 17 16 16 16 17 17 16 17 18 18 18 17 16 16 15 14 15 14 14 14 15 15 16 16 13 14 15 15 22 22 19 26 33 34 34 32 28 26 26 27 34 42 49 54 50 47 47 50 50
17 17 16 17 18 18 19 18 16 11 9 11 15 21 24 24 25 29 34 37 39 42 43 43 42 41 38 33 32 30 27 25 22 21 21 20 19 17 18 18 18 18 17 18 17 16 17 17 17 17 17 15 15 14 14 14 14 14 14 13 14 14 14 12 12 13 13 16 16 17 25 29 27 30 31 28 28 28 27 31 35 43 52 54 52 50 50 49
15 15 15 16 16 15 14 16 19 18 13 10 13 19 23 26 28 31 35 38 40 43 43 42 40 39 36 32 31 28 25 26 24 21 20 21 19 16 16 17 19 18 18 19 17 15 15 16 17 16 16 15 14 14 14 14 13 14 14 13 13 13 12 12 12 13 13 14 16 17 20 25 29 30 28 29 30 29 30 32 29 34 47 56 57 56 55 53
12 13 14 15 15 15 12 12 14 18 20 14 10 16 23 26 29 33 38 39 39 40 41 41 39 37 35 32 28 26 26 26 23 20 20 22 20 17 17 18 19 19 20 20 19 16 14 15 16 15 16 15 15 15 15 14 14 14 13 13 13 13 13 13 12 12 12 13 15 16 20 24 26 25 28 34 34 33 37 36 28 30 41 52 58 61 62 58
12 12 13 13 13 14 13 12 10 12 18 19 13 11 20 26 27 30 34 37 39 37 35 37 40 39 37 35 30 25 24 24 24 22 21 21 19 18 19 21 21 21 22 21 19 16 15 16 15 14 15 15 15 16 15 15 15 15 14 14 13 13 13 13 12 12 12 13 16 16 18 20 18 17 26 36 38 39 41 35 28 30 36 46 55 60 63 61
11 11 12 12 12 12 12 13 12 10 12 18 19 11 14 23 29 30 28 31 36 37 35 35 41 43 38 38 34 25 22 22 23 24 24 22 21 22 23 23 23 23 23 22 19 17 16 17 16 15 16 15 15 16 16 15 16 16 15 15 14 14 13 13 12 13 12 13 16 16 17 19 19 18 25 36 41 42 40 34 31 34 37 43 52 57 61 62
10 10 11 11 11 10 11 12 12 11 9 13 19 17 13 16 28 36 31 29 34 38 39 35 38 43 38 36 35 28 22 21 21 21 24 25 25 25 25 25 25 23 23 22 21 19 17 17 16 16 17 18 18 18 17 16 16 17 16 15 15 14 13 13 12 13 14 15 16 16 16 19 22 23 26 34 41 44 43 38 35 36 39 44 52 58 61 61
10 10 10 11 10 9 10 12 12 12 10 10 16 21 16 10 18 30 29 29 33 35 35 32 32 38 38 33 32 29 25 22 21 20 21 23 24 25 24 23 23 23 23 22 22 21 17 17 18 17 18 20 20 19 17 16 17 18 16 15 14 14 13 12 13 14 14 16 18 16 16 20 25 28 27 31 38 41 42 40 38 37 37 40 48 57 60 61
9 9 10 10 10 9 9 12 14 13 11 11 17 21 19 12 12 18 18 22 29 31 34 35 32 32 35 34 32 32 28 24 23 23 21 21 23 24 23 22 22 21 21 21 22 22 19 17 18 18 19 20 21 19 17 16 17 17 16 15 14 14 13 12 14 16 15 16 18 20 24 26 27 30 31 33 34 33 35 38 38 37 38 39 46 54 59 61
9 9 10 10 10 8 9 12 15 14 11 13 21 24 21 15 11 11 12 19 28 30 32 32 26 25 30 33 33 31 29 27 25 26 24 22 21 21 21 22 22 21 20 20 20 19 19 19 18 20 20 21 22 21 20 17 16 16 15 14 14 14 13 13 15 16 16 16 17 21 29 34 30 27 29 30 31 33 35 40 43 41 39 39 41 48 51 54
8 8 9 10 10 8 9 13 16 15 12 14 22 25 22 17 11 9 12 19 29 31 28 27 24 25 28 30 31 28 27 29 28 28 26 24 22 20 21 22 21 21 21 20 20 19 20 21 22 21 22 23 23 22 19 17 16 16 17 17 17 15 14 16 17 17 16 16 19 19 23 33 38 37 39 40 41 43 42 47 55 53 48 44 40 43 46 45
7 8 9 10 10 8 9 14 16 15 13 16 23 26 25 20 11 10 13 18 33 37 28 26 28 28 29 30 30 27 27 28 27 26 26 24 23 22 21 21 20 20 21 21 21 21 20 22 23 22 23 23 22 20 17 17 17 17 18 21 20 19 18 19 18 18 16 16 19 19 19 31 40 41 43 45 46 47 49 52 54 56 64 66 54 45 44 44
7 8 9 10 10 8 9 14 16 15 14 17 24 27 26 21 12 11 15 17 34 44 33 28 30 29 29 29 29 29 28 27 25 24 25 24 24 23 21 20 20 20 23 23 21 21 21 22 23 22 22 22 19 18 17 19 18 17 21 23 22 22 21 20 19 18 16 17 19 20 23 29 36 40 38 38 39 41 53 59 53 53 66 77 72 56 44 45
8 8 9 11 10 8 9 14 16 15 15 20 26 27 26 24 15 11 18 25 36 44 39 34 33 30 29 28 28 29 27 26 25 25 24 24 23 21 20 21 22 23 26 26 22 21 21 21 21 21 22 21 17 16 19 20 19 20 24 25 24 24 22 21 21 19 18 19 19 21 23 22 27 38 38 38 40 41 52 61 57 54 55 61 67 58 46 45
8 8 9 10 10 9 9 13 16 14 16 22 26 26 26 25 15 12 29 44 45 42 39 37 33 30 30 29 27 26 26 26 26 25 24 24 22 20 21 23 25 26 28 28 24 22 22 21 21 22 23 21 19 19 19 20 20 23 25 25 26 23 22 23 22 21 20 19 18 19 22 20 21 30 35 37 41 44 49 51 51 53 51 50 51 48 45 47
8 8 9 10 10 8 9 13 15 14 17 22 25 27 26 23 15 16 36 48 43 38 38 36 33 30 28 29 28 26 25 26 25 26 25 25 25 24 23 24 25 26 28 29 26 23 24 23 23 25 24 23 24 22 20 19 20 21 22 24 26 24 23 23 21 22 20 19 19 19 21 22 22 28 39 43 40 40 42 41 44 49 49 48 48 48 51 51
8 9 10 11 10 8 8 12 14 15 16 20 26 27 26 22 14 19 39 45 37 35 35 34 33 30 28 28 28 26 26 26 25 26 27 26 26 26 24 24 25 26 28 28 26 24 25 24 24 24 22 23 24 23 21 21 21 22 22 22 24 25 23 20 21 21 20 22 22 21 23 26 29 34 44 52 46 40 39 40 44 48 49 48 49 52 56 58
8 9 10 10 9 8 9 11 14 15 16 20 26 26 26 21 16 33 57 52 38 36 35 34 33 31 30 30 28 27 26 26 25 26 27 27 26 27 26 25 25 24 25 27 27 26 25 23 23 22 21 23 24 24 24 24 26 24 23 22 21 23 23 23 24 21 25 32 28 24 26 29 37 44 46 47 44 37 36 40 45 50 54 53 52 55 59 63
8 10 10 9 8 8 9 11 13 15 18 21 25 27 26 19 21 49 69 52 35 37 35 33 34 32 32 31 28 27 26 27 27 26 27 27 26 27 27 27 27 26 26 29 29 28 25 23 23 24 25 26 25 25 25 24 24 22 22 22 21 22 23 25 26 25 35 42 33 31 34 32 36 43 43 40 37 35 34 34 36 40 44 45 47 51 56 60
9 10 10 9 9 9 9 12 13 16 20 23 26 28 25 22 27 39 46 42 40 41 36 33 34 33 33 32 29 27 27 28 28 28 27 28 27 28 27 27 28 29 30 31 30 29 28 26 26 27 28 28 26 26 25 22 22 22 23 22 23 27 31 41 47 41 40 39 33 36 38 35 34 35 37 37 35 35 33 30 31 32 35 37 41 47 50 55
9 9 10 9 9 10 11 12 14 16 21 24 28 27 23 31 39 31 27 38 45 45 42 37 35 34 33 32 30 28 28 29 29 29 29 29 28 28 28 27 28 30 30 31 31 29 28 26 26 27 28 27 26 27 25 24 25 25 25 25 30 35 43 61 68 52 42 37 33 37 37 35 36 33 35 35 33 33 31 32 37 37 36 37 39 42 45 50
9 9 9 10 10 12 13 14 15 17 20 24 28 28 25 31 38 33 34 45 46 44 46 44 40 38 36 35 34 32 31 31 30 30 30 29 29 28 28 28 29 29 29 30 31 29 29 30 28 26 28 28 27 29 28 29 29 29 28 27 29 33 37 51 57 47 43 41 35 36 37 37 37 37 39 38 36 35 32 33 39 41 39 39 41 42 42 44
8 8 9 9 11 14 14 15 17 18 21 25 27 28 27 27 28 30 37 47 47 45 47 48 45 42 40 39 37 35 34 33 31 30 30 29 29 29 29 29 30 30 29 30 31 30 29 31 29 27 29 30 29 29 30 31 32 31 30 27 26 29 30 35 42 41 40 43 43 41 38 37 36 34 36 37 38 37 35 35 37 38 39 41 45 46 43 41
9 11 12 11 12 15 16 17 19 20 21 25 28 28 26 26 29 34 42 48 47 46 46 46 44 42 41 40 37 35 35 33 31 30 29 29 29 31 32 31 29 29 30 30 30 31 29 30 32 31 31 32 31 31 33 32 32 31 29 28 29 31 32 33 38 39 41 48 50 42 37 37 35 34 35 39 41 39 38 38 36 37 41 43 46 47 45 43
16 16 15 14 15 16 17 19 21 21 22 24 26 27 26 26 28 34 41 45 46 47 47 45 43 43 43 41 38 37 37 37 35 33 31 32 32 32 32 31 29 30 31 31 30 31 31 31 32 31 29 32 31 31 34 32 31 31 29 28 28 30 33 34 38 45 53 58 52 40 38 38 35 37 41 41 41 40 39 39 39 41 42 43 45 46 45 45
16 13 14 15 15 17 19 22 23 22 23 24 25 25 26 26 27 28 32 36 42 47 46 44 43 42 41 41 40 39 39 40 40 39 37 37 36 35 33 31 31 32 31 31 31 31 31 30 30 29 28 31 31 30 33 33 32 32 31 31 29 29 32 33 38 50 57 63 59 44 38 38 36 38 41 40 38 38 39 40 42 44 43 43 44 45 47 48
13 15 16 15 15 20 23 24 24 23 22 23 24 24 24 25 27 28 31 36 43 46 45 43 43 43 42 40 40 39 39 40 44 45 44 41 40 40 39 35 34 34 33 33 32 32 33 33 32 31 30 30 32 32 32 33 33 33 32 33 31 30 30 28 33 42 48 62 70 59 46 41 38 37 37 36 36 37 39 40 43 44 44 45 46 47 49 50
15 17 18 16 18 23 25 26 26 24 23 22 22 23 23 25 27 30 37 44 48 47 46 46 45 44 43 41 40 39 39 39 43 47 48 44 43 43 42 39 37 37 37 35 34 33 35 35 33 33 32 31 32 33 34 34 35 35 33 34 33 32 31 30 31 32 38 56 70 71 63 48 38 38 38 36 38 38 39 40 44 46 47 48 49 49 49 48
15 18 20 19 20 22 26 30 28 24 23 21 21 23 26 29 31 35 44 50 52 49 47 47 46 45 44 43 41 40 41 41 42 48 50 47 43 43 42 40 39 39 38 36 35 35 36 36 35 34 33 32 32 33 35 35 37 38 38 37 35 32 31 38 44 39 37 46 54 62 66 51 38 38 38 36 37 37 38 39 41 45 46 46 46 45 44 44
16 19 23 23 24 28 33 35 31 27 23 21 22 24 28 34 35 39 48 51 52 51 49 49 48 47 45 43 41 41 42 43 43 47 51 50 47 45 43 43 42 40 40 39 38 38 37 37 37 36 35 35 35 35 34 34 34 36 39 39 36 34 32 40 51 46 40 43 43 49 58 50 37 35 34 34 37 38 40 40 39 42 43 43 44 44 45 46
18 21 25 28 30 36 42 39 31 26 23 22 25 24 30 41 43 44 49 52 55 56 53 51 49 47 47 44 43 43 43 44 44 45 48 50 49 47 46 46 46 44 43 41 40 41 40 38 39 38 38 37 36 35 34 34 33 34 37 38 38 37 35 37 43 40 39 43 41 46 56 47 35 33 33 34 38 40 43 43 42 44 44 43 45 46 48 49
21 23 27 31 35 39 42 37 28 26 26 27 28 24 28 41 49 51 53 54 61 63 58 55 53 50 48 47 46 46 47 48 49 47 48 49 49 49 48 48 48 47 45 43 42 41 40 41 42 43 45 46 44 41 37 35 36 37 39 40 40 40 39 39 41 39 42 42 38 47 56 44 33 35 34 34 38 40 43 46 45 45 45 45 45 45 46 48
24 27 30 35 40 43 40 32 28 31 32 31 31 31 31 35 44 54 59 57 61 65 62 60 57 53 51 50 48 48 49 52 53 52 52 51 50 50 49 49 49 49 47 47 46 44 42 42 42 45 52 57 55 47 41 38 38 40 42 43 44 45 46 47 47 46 46 44 40 44 47 39 35 39 38 38 41 42 45 47 46 46 48 48 48 48 47 48
26 29 31 32 36 39 37 33 35 38 36 36 42 47 46 43 42 46 52 56 58 61 62 61 59 56 55 53 51 50 49 50 53 55 55 55 55 52 49 48 50 51 49 48 48 48 45 43 41 42 45 48 47 43 41 41 40 41 42 44 46 47 48 48 51 51 49 50 50 47 46 45 44 45 44 43 44 44 46 48 47 48 50 50 51 52 50 50
28 30 33 37 42 44 40 40 45 45 42 48 56 58 56 54 48 42 45 51 55 57 59 60 60 60 58 56 54 54 53 52 52 54 56 57 58 58 56 51 50 50 50 50 51 51 48 45 44 44 43 42 42 42 42 42 42 42 43 43 44 45 46 47 50 50 48 53 57 50 47 50 49 47 49 48 47 47 48 48 48 50 51 52 53 52 52 52
30 33 36 41 48 52 50 48 50 50 53 62 66 59 53 53 50 47 48 51 52 55 58 59 59 59 59 59 59 59 59 58 55 54 54 54 54 56 57 54 52 52 52 54 55 55 54 51 49 49 49 48 46 45 43 43 45 45 45 45 44 42 44 47 50 50 49 52 54 49 46 47 45 45 48 49 48 49 49 50 50 51 53 53 53 53 53 52
33 37 40 43 46 50 52 53 55 57 61 67 67 60 53 49 45 44 45 45 47 53 60 62 58 57 59 61 62 63 63 62 61 58 56 56 56 55 56 55 54 53 53 55 57 59 58 57 55 55 55 53 52 50 47 46 47 49 49 49 47 44 45 49 50 51 51 51 50 48 48 48 45 44 45 45 45 46 49 52 53 52 53 52 52 53 52 49
35 36 38 41 44 46 47 50 54 58 60 61 60 57 51 43 36 36 37 38 42 49 58 62 61 59 60 61 61 62 64 64 63 62 61 62 63 63 62 61 59 57 56 56 58 60 60 61 61 59 57 57 55 52 50 51 52 55 55 53 50 49 48 49 49 49 51 50 49 49 50 49 46 45 45 45 45 45 47 49 50 51 52 52 52 53 51 49
35 36 36 38 41 45 48 49 51 55 58 57 56 53 46 38 35 36 36 38 42 47 50 52 54 55 57 58 58 57 60 62 62 62 64 65 65 66 66 66 66 65 62 60 60 60 60 62 64 64 63 61 58 55 53 53 55 57 56 53 51 51 50 49 49 50 52 52 51 51 51 48 46 47 48 49 50 50 50 50 49 50 52 53 53 53 52 51
35 36 36 37 38 43 49 53 54 55 56 55 53 49 42 38 39 40 41 43 47 50 52 50 48 50 52 53 53 52 52 54 57 61 63 62 62 63 64 65 67 68 68 66 64 62 60 59 62 67 69 69 67 62 57 59 66 66 58 51 49 48 46 46 48 51 53 53 52 51 49 46 47 49 51 51 52 52 53 53 54 53 52 52 51 51 51 51
Wind_Speed
20 20 19 19 19 19 18 17 15 14 13 13 13 12 12 11 10 9 9 9 8 8 8 8 8 8 9 10 11 12 12 10 6 5 6 6 5 6 6 6 6 6 8 9 11 12 12 12 11 11 12 12 13 16 18 17 12 10 8 5 5 5 2 2 7 4 1 4 5 2 5 9 12 10 9 7 7 9 7 7 9 7 5 5 8 10 11 11
20 20 19 19 19 19 18 17 15 14 13 13 12 12 12 11 10 9 9 9 8 7 7 8 8 9 11 12 13 13 13 12 10 7 8 8 7 7 7 7 7 7 9 11 13 13 13 14 14 14 15 13 12 14 14 12 9 8 7 6 6 5 5 3 6 2 7 7 8 3 7 13 16 13 11 9 5 5 6 7 8 5 5 7 10 11 11 13
19 19 19 19 18 18 18 17 15 13 12 12 12 11 11 10 10 9 8 8 7 6 7 7 7 9 11 11 12 12 14 15 14 12 10 10 9 8 8 8 8 8 9 11 12 11 12 16 16 16 16 14 12 12 12 11 7 5 7 7 5 4 4 3 7 11 8 5 6 3 7 13 16 12 10 10 6 5 6 7 6 4 7 9 10 11 11 12
18 19 19 19 18 18 17 16 15 13 12 11 11 11 10 10 9 8 8 7 6 6 6 6 7 8 10 9 8 9 12 15 16 14 12 11 9 8 9 10 10 10 11 11 10 9 12 15 16 16 15 14 11 9 10 9 5 6 8 6 3 3 5 4 9 9 2 1 3 2 7 10 14 11 9 10 8 6 5 6 6 6 9 9 10 11 12 12
18 18 18 18 18 17 17 16 14 12 11 11 11 10 10 9 9 8 7 6 6 6 7 7 7 8 8 8 8 8 9 12 15 15 12 10 9 8 10 11 12 12 11 10 9 9 12 13 14 15 14 13 9 6 7 3 1 5 6 3 4 5 7 7 7 7 6 5 4 4 7 9 10 8 8 10 9 8 5 4 5 7 10 8 9 12 13 13
18 18 18 18 18 17 17 16 14 12 11 11 10 9 9 9 9 8 8 6 7 8 9 8 7 8 7 7 8 9 9 10 13 14 11 9 8 8 10 13 14 15 14 13 12 11 11 11 10 11 9 8 4 2 2 2 4 6 6 6 5 6 9 9 5 6 7 5 4 6 8 8 7 6 8 8 8 9 4 3 4 7 10 10 10 12 14 14
19 18 18 18 18 18 17 16 15 13 11 11 10 9 9 9 9 9 8 8 8 10 11 10 9 10 9 8 8 10 11 11 12 13 10 8 7 7 11 15 18 19 18 16 14 12 11 9 6 5 2 1 1 2 4 5 6 7 6 8 9 8 10 8 7 9 7 6 8 8 7 5 6 7 6 5 8 9 4 3 3 6 9 10 10 12 15 14
19 19 19 18 18 18 18 17 16 13 11 11 9 9 9 9 10 10 9 9 10 11 12 11 12 14 14 12 10 10 11 12 12 11 9 7 6 8 11 15 18 19 18 15 11 9 9 6 3 2 1 2 3 4 6 7 8 12 11 8 8 9 11 8 9 10 7 6 5 7 6 6 6 6 4 5 8 9 5 2 2 5 8 11 10 12 12 11
19 19 19 19 19 19 19 18 17 14 12 11 9 8 9 10 10 10 9 10 11 11 11 11 12 15 18 16 14 11 11 13 11 8 8 7 6 9 11 13 17 18 17 13 8 5 4 3 3 1 3 2 2 3 5 6 5 11 13 10 9 10 10 9 9 7 5 5 3 7 6 4 4 4 5 5 6 7 5 1 2 4 7 9 9 9 8 6
19 19 19 19 19 19 19 19 18 16 13 11 9 8 9 9 10 10 9 9 10 9 9 9 10 13 18 19 17 13 10 12 9 5 7 7 7 10 12 12 15 18 16 12 8 4 2 4 5 3 7 4 3 3 3 4 2 4 9 10 11 11 8 6 6 4 4 4 5 8 3 2 3 5 7 4 5 5 4 1 2 5 7 8 8 6 5 4
18 18 19 19 19 19 19 19 18 17 14 12 10 8 8 9 10 9 8 8 8 8 7 7 6 10 15 19 18 13 12 12 10 7 6 6 6 9 12 10 13 17 13 9 7 5 3 5 7 7 7 5 3 0 2 3 4 2 8 8 9 10 9 6 6 5 3 5 8 9 5 3 4 5 7 4 5 4 2 1 3 7 8 7 8 6 4 4
18 18 19 19 19 19 19 19 18 17 15 12 10 8 8 9 9 9 8 8 7 7 6 5 5 7 12 15 16 14 15 11 11 11 10 11 7 7 11 10 10 12 8 6 4 2 4 8 10 10 7 4 1 1 2 1 5 3 6 9 11 13 14 11 9 9 6 7 9 9 6 5 5 5 6 3 3 2 2 1 3 7 10 8 9 9 7 7
17 17 18 19 19 19 20 19 19 18 16 14 10 8 8 8 9 10 10 9 9 8 7 6 7 8 9 11 13 14 14 9 9 12 13 14 12 9 11 10 8 6 5 6 5 6 5 11 12 11 7 3 0 1 5 4 4 2 4 8 11 13 14 12 12 12 10 12 12 10 7 7 7 6 5 3 2 2 2 1 3 6 11 10 10 11 10 10
15 16 17 18 19 19 20 19 19 18 17 15 11 8 7 8 9 11 12 11 10 10 8 8 8 10 10 10 12 14 14 9 5 6 7 10 13 12 12 11 7 4 4 3 3 4 3 9 10 10 6 2 1 1 5 6 4 3 6 7 7 10 7 4 9 12 12 14 15 12 11 9 8 7 6 4 2 1 1 2 3 5 10 11 11 12 12 11
13 14 15 16 17 18 19 20 19 18 17 15 13 9 7 7 8 9 10 10 9 9 8 9 10 10 10 11 12 13 14 11 5 4 4 6 8 9 10 11 9 8 7 6 8 6 3 8 8 9 5 1 0 1 1 2 3 4 7 9 8 10 7 9 5 11 13 16 17 15 12 10 9 7 6 6 4 3 4 4 3 4 8 11 13 14 14 12
11 12 13 13 15 16 18 19 19 18 16 15 13 10 6 5 5 7 7 7 7 6 7 10 11 11 11 12 13 12 13 12 7 6 6 4 4 7 13 13 12 12 11 10 10 7 5 8 7 7 3 2 3 4 5 5 5 6 9 13 14 14 15 15 8 9 14 17 19 18 14 11 9 7 9 9 7 6 7 7 5 4 6 9 12 15 15 13
10 10 11 12 13 14 16 17 18 18 17 15 13 10 8 4 2 2 2 3 4 4 6 9 10 10 11 13 15 13 12 11 7 8 8 8 8 12 16 15 13 12 11 11 10 7 8 6 5 5 1 0 1 5 8 8 10 12 10 12 14 14 17 15 8 5 12 18 20 19 16 11 6 6 9 11 10 10 10 8 6 5 6 8 11 13 14 15
10 10 11 12 13 14 15 16 17 17 17 16 13 10 8 6 4 4 4 2 1 1 3 5 6 7 8 11 13 12 12 9 8 11 12 14 13 13 12 11 11 11 10 9 9 7 5 1 2 3 3 3 5 7 10 10 9 14 13 11 11 9 10 13 11 3 12 19 21 20 15 10 6 6 9 11 11 12 11 8 7 7 7 8 11 12 14 15
10 11 11 12 13 14 15 16 16 16 16 16 14 11 8 7 5 5 5 3 3 2 2 1 1 2 4 7 9 10 9 6 8 9 11 14 12 9 8 7 7 8 8 8 7 5 3 2 3 5 7 9 9 8 10 10 6 9 12 12 11 6 6 13 16 4 14 18 18 18 12 8 8 8 8 10 12 13 12 11 9 9 9 9 11 13 14 15
11 11 12 13 13 14 15 16 17 17 16 16 16 13 9 8 6 3 3 4 5 4 4 4 2 0 3 6 3 7 6 4 6 8 7 8 8 6 6 5 5 5 5 8 5 3 5 4 3 6 7 8 8 5 6 9 8 11 10 12 11 6 5 12 18 7 13 16 12 11 8 6 7 6 3 5 10 13 13 14 13 12 11 11 13 15 15 16
11 12 12 13 14 14 15 17 18 17 16 16 16 13 9 8 7 4 3 4 5 5 5 6 4 1 1 4 3 6 6 0 4 7 7 4 5 8 6 4 7 7 7 10 5 3 6 7 6 6 5 8 7 5 5 8 10 11 10 12 12 9 8 9 14 11 3 7 6 3 3 4 4 4 3 4 6 7 10 12 14 14 13 12 14 16 16 18
12 12 12 13 14 14 16 18 19 18 17 17 16 13 10 8 8 8 5 2 4 5 3 6 5 1 4 5 4 8 7 4 4 3 5 2 3 8 5 2 7 9 10 10 5 5 8 10 9 5 6 9 11 11 9 7 7 5 6 10 12 12 11 9 7 9 7 5 9 6 5 7 4 2 1 2 3 6 9 12 14 14 14 14 14 16 17 18
12 12 12 13 13 14 15 17 19 18 18 17 16 12 10 9 8 8 7 5 3 3 0 5 5 5 7 5 2 5 5 3 3 2 2 2 3 8 5 4 8 7 8 7 3 5 8 7 7 6 8 10 14 14 10 6 4 6 9 10 13 13 10 11 10 7 8 8 8 6 5 10 11 7 3 4 5 8 10 12 16 16 16 16 15 16 17 17
13 12 12 13 13 14 15 17 18 18 17 17 15 13 11 9 9 8 7 7 3 1 3 5 6 7 7 3 3 2 4 4 2 4 3 6 6 8 8 7 5 1 5 8 3 6 9 7 4 6 9 11 13 11 6 4 3 4 9 11 11 11 10 11 12 10 8 5 7 8 6 11 13 11 9 10 10 12 12 13 16 19 20 21 19 17 16 14
14 13 12 13 14 14 14 16 18 17 17 17 16 14 11 8 8 8 7 8 4 2 3 4 4 4 4 2 3 2 5 6 3 5 3 5 8 11 10 8 6 2 6 8 4 6 7 5 5 7 10 10 9 5 5 7 5 3 9 11 9 8 8 10 10 12 11 6 7 8 5 6 8 10 10 10 9 11 14 15 16 19 22 24 22 18 16 14
14 14 13 13 13 14 14 15 16 16 16 17 15 12 10 9 8 7 8 9 4 4 4 4 3 2 3 3 2 1 3 6 5 2 3 5 8 10 8 5 5 3 6 7 6 6 5 6 7 9 9 7 3 2 5 8 7 5 8 10 8 4 6 9 9 9 8 7 9 8 4 3 2 7 9 9 11 13 15 17 18 20 22 20 18 16 13 14
15 14 14 14 13 13 13 14 15 15 14 15 13 11 10 8 8 6 6 7 3 4 6 5 4 1 2 4 4 2 2 4 7 5 5 5 7 5 5 4 5 3 4 8 7 4 4 6 6 6 9 7 4 5 8 8 8 8 8 9 10 8 7 8 8 6 6 7 8 6 3 3 1 5 8 9 12 16 16 17 19 21 21 19 16 14 12 14
15 15 15 15 14 13 13 13 14 14 14 14 13 10 7 6 6 6 3 2 1 3 5 6 4 3 4 6 7 7 3 2 6 6 7 6 6 5 6 7 8 6 3 7 7 4 5 7 5 5 9 9 6 7 8 10 12 13 14 13 12 11 10 10 10 10 8 8 6 4 3 3 3 6 11 13 12 15 16 16 18 21 21 19 17 16 14 15
15 15 15 15 14 14 13 12 12 13 14 14 13 9 5 4 4 4 2 0 1 2 4 6 6 4 5 7 9 9 9 8 7 7 7 5 3 3 4 5 8 8 6 7 10 10 9 8 7 7 8 9 9 7 7 11 15 18 20 19 16 14 14 12 11 11 9 7 7 8 6 3 2 6 16 19 15 14 13 14 17 20 19 18 16 15 15 17
15 15 15 15 15 14 13 12 11 12 13 13 13 8 5 4 3 3 1 2 2 1 3 6 7 6 7 8 8 7 8 8 7 7 7 6 3 1 4 5 7 7 5 7 10 11 10 11 12 10 9 9 10 10 12 14 17 19 20 20 18 17 14 11 8 7 5 4 4 6 5 2 1 8 17 15 10 10 9 10 15 19 19 16 14 14 15 18
16 16 15 15 15 14 13 12 11 11 11 11 11 7 5 5 5 3 2 2 3 3 3 5 6 6 7 7 7 5 7 8 7 9 9 9 8 7 5 5 6 6 6 7 8 7 6 8 10 11 11 12 13 15 16 13 10 11 10 11 12 11 10 8 7 5 2 1 1 2 3 3 2 8 13 8 6 8 9 9 11 14 15 13 12 13 15 17
16 16 16 15 15 14 13 12 11 10 10 10 8 7 5 5 6 7 4 2 2 3 3 5 6 4 5 5 5 5 7 6 8 11 13 14 13 12 9 7 6 8 9 10 8 7 7 7 10 12 12 14 15 14 9 5 4 5 5 6 7 6 6 5 4 2 1 4 2 2 6 6 5 6 8 10 12 12 13 14 12 10 10 10 10 11 13 15
16 17 17 15 14 14 12 11 10 9 9 8 7 7 6 5 5 8 7 3 1 1 4 5 7 4 5 7 4 4 7 7 7 10 13 16 16 15 11 7 8 10 11 11 10 9 10 9 9 9 8 10 13 11 6 4 6 8 7 5 2 1 2 1 3 2 4 6 6 6 9 6 6 6 6 8 10 11 11 10 8 7 7 8 8 8 10 13
17 17 17 16 15 14 12 11 9 8 8 8 7 7 8 7 5 5 6 3 1 3 5 4 7 7 9 10 7 6 9 11 11 14 16 18 19 18 13 9 10 12 14 15 13 10 8 6 5 5 6 7 10 11 9 9 11 11 8 6 5 4 3 3 3 2 3 6 8 9 8 3 3 6 7 9 10 10 10 7 6 7 7 6 7 8 10 12
17 17 16 16 15 14 13 10 9 8 7 7 7 8 10 10 8 6 6 4 2 4 4 4 7 8 8 10 10 10 12 13 12 15 17 20 19 17 13 11 12 13 15 15 11 8 6 5 6 7 7 7 8 8 9 10 9 7 7 8 7 5 5 5 4 4 5 5 6 7 6 7 9 11 13 14 13 11 9 7 8 8 8 8 9 10 10 10
16 17 17 16 15 15 13 10 8 7 6 6 8 11 11 10 8 7 8 6 1 4 5 5 7 9 7 8 10 9 10 12 11 11 13 16 17 15 12 14 15 13 14 14 10 8 6 5 7 8 7 7 5 6 10 11 8 6 6 6 4 3 5 7 5 4 3 2 3 5 7 11 11 10 10 10 11 10 8 8 9 8 8 9 10 10 8 7
18 18 18 17 15 15 14 10 8 8 6 6 8 10 11 11 9 8 9 7 2 3 6 8 7 7 6 6 8 7 5 7 8 10 11 11 12 14 12 12 13 13 14 15 13 12 10 8 8 9 9 8 8 9 12 12 10 8 7 6 6 5 6 5 3 1 1 1 3 5 7 10 9 6 6 6 8 10 9 9 8 8 9 9 10 9 8 7
18 19 18 16 14 14 13 11 10 8 6 7 9 9 10 10 8 8 10 9 8 7 10 11 10 9 10 10 10 10 8 6 5 7 10 9 9 11 11 9 10 12 14 13 12 12 11 10 10 10 9 9 8 8 9 11 9 8 6 6 7 7 6 4 2 1 0 1 2 4 7 9 10 10 8 7 7 7 8 10 10 10 10 10 10 10 10 10
18 18 17 15 14 13 13 12 11 9 8 8 8 8 9 9 7 7 8 8 8 8 10 11 10 11 13 13 14 15 15 11 8 8 9 8 8 9 10 11 9 8 9 8 9 10 9 8 8 9 10 10 9 8 9 11 10 8 7 6 8 9 8 9 8 4 3 2 2 3 5 7 10 11 10 9 8 6 8 10 13 13 12 12 13 13 13 12
18 18 17 15 13 13 14 13 12 10 9 9 9 9 10 10 9 9 8 7 7 8 9 11 11 11 12 13 15 17 20 18 13 10 8 8 8 8 7 9 10 9 9 8 9 10 9 9 9 10 11 11 11 10 9 10 9 9 10 9 10 12 10 9 11 9 6 3 3 1 3 6 8 8 8 10 10 12 12 11 15 16 14 14 14 14 14 13
19 18 17 16 14 14 15 14 12 12 10 10 10 10 10 10 10 11 10 6 7 9 12 13 13 13 13 13 14 17 21 23 18 12 9 9 10 10 7 7 9 11 10 9 9 8 8 9 11 13 15 15 15 13 11 10 11 11 12 12 11 13 13 7 6 10 10 7 5 4 5 10 12 12 13 14 14 14 11 9 13 15 14 14 15 16 17 17
19 17 17 16 14 14 15 14 13 13 12 10 10 10 10 11 12 12 10 7 5 9 12 14 14 14 13 12 12 14 19 23 22 16 13 12 11 11 9 7 9 12 13 12 11 12 13 13 13 16 18 18 17 16 15 16 15 13 14 15 13 12 16 12 7 9 12 12 11 8 6 12 17 15 14 13 12 12 11 9 11 13 14 15 16 16 17 17
19 17 17 16 15 14 16 16 15 15 13 11 11 11 10 11 13 13 11 8 6 9 11 13 15 15 15 13 11 12 15 19 21 20 17 16 15 15 14 12 12 14 16 15 14 15 16 15 14 15 16 18 19 19 19 19 18 17 17 18 17 15 16 16 13 14 15 15 14 8 5 12 19 18 15 12 9 11 12 11 11 12 15 16 15 15 16 16
18 17 17 17 16 17 19 18 15 15 13 12 13 13 12 13 15 15 14 11 9 9 11 14 15 14 15 15 14 14 13 14 17 19 18 17 18 18 18 17 16 17 18 15 14 16 17 14 12 10 8 11 13 13 13 15 17 16 12 10 11 13 13 14 16 15 14 15 16 10 8 15 19 18 18 13 10 12 13 13 14 15 16 16 16 16 17 18
18 17 17 18 18 20 20 17 15 14 13 13 15 14 13 15 16 16 17 17 14 12 13 15 16 15 15 17 18 17 15 14 15 17 18 18 19 20 20 19 17 19 19 15 12 17 19 17 15 11 6 6 8 8 8 10 12 13 11 9 8 8 9 11 14 13 10 11 13 13 14 18 18 15 15 12 10 12 14 15 16 16 15 15 16 17 18 20
19 18 18 19 21 23 21 17 16 15 14 14 13 10 9 11 14 16 18 20 19 16 16 16 17 18 19 20 20 20 20 18 16 17 18 19 19 20 21 20 17 17 19 17 15 16 18 21 21 20 18 17 17 16 15 15 15 15 14 13 11 11 12 13 15 16 16 14 15 19 21 21 18 16 14 14 14 14 16 15 15 15 16 17 18 19 20 21
20 19 19 19 19 20 20 18 17 16 14 14 13 9 8 10 11 14 15 16 16 16 17 17 16 16 19 20 20 21 22 22 21 20 19 19 19 18 20 21 20 20 21 19 18 17 18 19 19 20 23 24 23 21 20 21 21 21 22 22 22 21 20 19 19 20 21 19 19 24 26 25 25 22 15 14 15 15 15 15 15 16 17 18 20 21 21 22
21 20 20 21 19 16 15 16 19 20 17 17 16 13 12 12 11 12 13 13 14 14 14 16 15 13 14 16 18 20 21 22 23 23 21 20 20 20 21 21 22 24 24 21 19 17 17 17 16 16 18 19 20 20 19 22 23 24 25 26 28 29 28 24 22 20 22 24 26 28 29 29 31 29 23 20 19 20 21 20 19 19 19 20 21 22 21 22
23 22 22 23 23 20 17 16 20 22 21 20 20 17 15 15 14 15 16 18 18 16 15 17 17 14 12 13 16 20 21 21 21 22 21 20 19 18 19 19 21 22 24 23 21 19 19 19 19 18 18 18 19 19 19 22 24 25 25 24 27 30 30 27 25 24 26 29 30 30 29 30 31 29 27 25 25 28 29 26 23 21 22 24 24 22 21 21
24 24 23 24 24 24 23 21 21 23 22 21 21 19 18 19 19 19 20 22 23 22 22 21 20 17 15 14 16 20 23 23 24 24 24 22 19 17 15 15 17 18 21 23 24 23 22 20 19 19 20 20 20 19 20 22 24 24 24 25 27 29 29 29 29 28 28 29 30 29 29 33 33 28 25 24 24 27 29 29 29 27 25 25 25 24 22 18
23 23 23 25 26 25 25 25 24 25 26 25 24 23 23 23 23 22 21 20 19 21 24 25 25 24 23 22 21 22 23 24 25 26 27 26 25 22 20 18 16 16 18 21 23 23 23 21 20 20 22 23 23 22 23 25 28 30 29 30 30 29 27 27 27 27 26 26 27 27 29 35 34 27 22 21 22 22 23 23 24 23 23 23 24 23 21 16
21 22 23 24 27 27 26 27 27 28 29 28 26 26 25 24 23 22 22 19 16 14 18 22 25 27 27 26 25 25 24 25 27 27 27 28 28 28 28 26 23 21 20 20 22 24 25 25 24 22 21 22 21 22 27 29 27 29 34 35 33 32 31 29 28 27 26 26 28 30 32 34 32 25 21 21 20 21 22 21 19 18 19 21 21 20 19 17
Wind_Direction
35 34 32 30 27 25 25 28 31 35 40 41 40 36 33 35 37 32 27 29 34 38 42 48 53 58 65 69 78 82 74 76 87 71 64 79 108 129 138 134 118 111 119 121 114 111 111 114 116 128 160 170 163 160 149 141 142 149 161 181 224 243 208 358 38 75 250 343 341 30 42 28 46 25 7 20 353 360 32 46 32 39 52 78 95 90 92 97
34 32 31 30 28 26 26 27 30 34 39 42 40 35 33 36 39 35 29 30 35 39 45 54 58 64 70 75 84 83 71 66 69 69 70 79 91 107 122 120 109 109 119 123 124 127 121 117 115 118 138 146 143 150 141 138 151 161 187 207 197 173 128 89 31 303 260 303 293 285 43 25 29 27 15 4 340 12 20 20 28 48 81 109 106 98 99 98
34 32 30 29 28 28 28 28 30 34 39 42 40 35 34 40 43 40 36 35 39 45 54 62 63 66 69 78 85 74 63 57 54 59 66 70 78 94 111 109 105 107 115 122 131 143 130 118 117 119 130 131 128 146 145 145 164 176 211 230 186 129 100 111 353 314 258 254 245 178 45 18 24 21 12 8 352 10 17 21 31 69 104 120 113 104 105 106
32 31 30 28 28 28 29 31 33 36 40 43 40 36 39 46 46 44 43 42 47 56 67 73 68 65 62 66 73 66 59 52 49 55 62 65 73 93 107 108 106 108 116 120 127 149 137 118 117 120 122 120 119 142 156 156 176 199 216 251 294 321 328 2 4 5 99 285 297 34 25 18 24 23 21 12 5 11 22 34 37 79 106 116 112 108 112 119
28 29 29 28 27 27 29 32 36 39 42 43 40 41 46 49 46 45 47 49 60 69 81 84 74 67 61 61 68 72 62 50 49 51 55 61 69 92 110 111 108 108 110 111 116 133 128 116 117 118 113 116 118 124 141 145 199 217 225 281 330 297 309 349 9 29 40 23 32 30 15 21 21 22 18 9 14 12 13 34 37 93 114 117 114 116 119 125
25 26 26 26 26 27 27 30 36 41 44 43 42 47 52 50 44 45 49 59 74 85 92 91 82 71 61 63 67 66 58 47 50 50 52 61 70 96 113 112 109 106 105 106 112 118 118 116 118 122 118 115 130 115 89 309 271 260 270 281 304 302 305 333 336 326 353 7 15 351 349 15 13 360 5 11 14 6 19 63 66 119 129 128 129 127 125 127
23 23 23 23 25 25 25 28 33 39 42 42 43 51 54 49 44 46 56 72 89 95 96 93 78 59 46 50 55 52 47 41 49 54 59 70 80 105 116 114 114 113 115 116 115 120 116 108 102 115 115 33 301 328 347 314 272 258 272 281 290 290 286 317 331 315 327 329 336 339 326 337 339 341 3 19 2 360 26 78 104 136 138 138 140 134 128 129
23 23 21 21 23 23 24 25 29 35 39 39 42 51 52 46 45 51 66 87 99 100 98 91 72 53 42 40 40 36 38 41 44 50 62 79 94 114 123 121 122 122 122 118 114 127 120 105 77 76 334 328 299 317 339 316 274 242 246 273 282 274 264 285 324 321 298 273 322 355 334 313 312 329 350 1 359 4 19 54 131 148 140 140 140 134 131 134
24 23 22 22 22 22 23 23 25 31 35 35 38 48 48 44 46 55 77 98 105 106 100 89 73 55 44 39 34 25 34 45 39 41 65 90 118 126 130 130 132 130 126 121 122 141 133 137 107 87 254 292 282 288 343 332 288 230 237 254 262 271 266 277 305 319 292 242 326 348 340 318 295 308 315 332 8 12 11 23 169 161 143 139 138 131 123 126
25 24 23 22 22 22 22 22 23 27 32 34 35 43 46 44 48 59 85 106 110 110 98 89 80 58 45 40 33 23 38 53 48 53 77 103 134 142 140 142 143 138 133 134 142 159 177 173 154 205 244 261 241 241 2 5 27 218 248 251 253 262 256 279 285 281 300 268 296 310 315 333 268 278 299 329 22 17 13 352 173 164 158 145 139 123 94 72
26 25 24 23 23 22 21 23 23 25 28 31 34 39 42 45 52 64 89 111 113 109 96 90 82 52 43 42 36 29 39 58 76 82 80 99 130 156 157 163 156 146 145 145 149 173 198 188 192 213 229 243 229 190 33 47 55 295 279 257 242 255 246 260 253 224 269 257 265 277 270 274 236 265 302 349 28 20 35 168 175 168 175 166 159 158 128 90
25 24 26 26 25 23 22 21 22 24 26 28 33 37 40 46 58 69 88 107 109 105 94 86 72 43 40 40 39 35 33 51 94 101 94 98 114 169 176 183 167 156 164 166 172 260 231 200 197 205 214 222 218 59 159 76 17 336 289 258 234 249 247 242 241 230 223 214 244 264 251 240 239 277 305 338 14 12 63 171 197 182 183 180 170 171 159 135
22 23 25 27 27 25 23 21 21 22 24 26 29 36 40 47 64 77 87 96 98 96 88 76 57 36 35 40 40 37 34 47 99 110 105 103 112 144 166 174 173 178 191 205 258 305 248 208 196 192 196 174 120 307 184 196 327 340 308 274 237 248 255 246 241 233 215 218 244 253 215 206 232 261 274 274 316 1 66 159 214 196 187 186 181 176 165 149
17 19 20 22 24 24 23 20 19 19 22 24 24 33 43 54 71 83 88 89 88 83 74 61 40 26 30 36 38 41 43 49 87 115 109 107 118 134 152 156 155 165 173 209 297 347 213 202 187 178 176 147 152 201 177 201 269 285 289 285 240 240 269 278 238 226 213 225 244 242 217 208 216 227 238 244 261 311 104 169 211 204 192 192 190 179 170 162
11 12 12 13 15 17 19 18 16 16 19 21 22 25 39 64 77 83 84 82 79 71 59 48 35 33 40 36 37 42 40 42 68 111 113 116 126 130 135 136 124 111 99 65 47 45 169 181 170 171 178 221 256 145 158 239 264 282 286 289 268 249 305 357 279 229 213 224 238 233 219 203 196 213 230 231 235 240 209 199 223 224 205 195 192 184 175 174
3 4 4 3 4 6 8 10 11 10 12 17 21 19 24 59 82 83 80 79 77 71 54 44 41 46 48 32 25 32 25 18 40 72 77 80 98 108 108 108 102 92 76 59 48 48 126 145 153 173 202 280 301 309 316 321 318 316 293 288 288 269 292 331 317 241 216 221 229 225 223 209 200 219 217 214 224 223 210 213 235 236 218 200 197 195 183 181
352 354 355 355 354 355 357 1 3 3 5 9 15 16 10 1 19 70 78 86 80 77 65 52 48 46 42 23 8 17 18 8 35 65 71 78 90 104 101 92 87 82 72 64 60 82 123 133 161 192 265 57 309 311 303 320 351 354 328 306 306 282 289 326 341 251 205 209 212 209 227 233 228 239 214 209 216 217 215 226 254 249 225 210 208 208 194 188
339 342 346 348 349 348 349 352 354 356 357 359 5 9 5 346 313 304 313 320 358 64 83 55 41 32 33 20 353 1 21 30 74 82 87 94 98 103 98 89 83 73 67 63 63 91 122 134 219 243 322 343 321 316 297 304 358 4 355 358 344 305 310 353 1 292 184 194 203 200 219 236 236 241 215 209 212 216 222 233 256 245 223 219 216 213 200 192
327 333 338 341 344 344 344 346 347 348 349 353 355 350 354 348 314 298 322 317 277 274 200 202 27 11 29 28 345 346 21 58 85 80 96 104 103 99 84 85 78 62 57 52 63 76 41 337 294 301 330 339 329 325 307 310 347 339 343 4 355 342 354 7 8 341 188 192 202 198 207 217 211 214 203 204 207 210 219 230 242 235 224 222 216 212 204 195
318 325 331 335 339 339 339 341 343 343 343 349 349 339 342 341 320 302 303 279 265 263 237 242 247 225 48 59 359 333 4 77 88 72 90 102 90 62 46 50 26 16 20 16 33 34 347 332 334 330 326 330 335 358 348 342 332 291 308 343 330 323 325 353 18 31 191 188 189 194 196 183 185 197 193 195 204 211 221 231 235 231 229 226 218 214 206 197
311 318 325 329 333 335 336 337 339 340 341 348 348 337 335 331 322 328 304 268 269 268 250 251 253 249 134 139 193 300 324 276 122 77 66 69 53 22 9 16 360 353 345 333 316 279 288 289 334 353 315 305 312 342 356 354 338 289 295 333 322 308 302 333 24 37 160 156 110 97 159 144 145 171 199 207 215 240 248 247 246 239 233 228 221 218 210 203
303 311 317 322 327 330 332 334 335 338 341 348 349 339 333 328 324 334 342 339 308 297 261 225 225 152 133 149 211 264 275 234 194 95 52 54 7 344 337 352 334 333 338 319 260 218 246 270 306 309 286 285 278 294 313 328 353 340 329 341 329 311 298 308 3 26 14 45 71 76 148 166 168 137 47 328 319 304 277 265 259 250 243 236 226 221 219 215
295 302 310 315 321 325 329 332 333 337 341 346 348 337 328 325 321 327 337 345 327 324 358 189 192 148 132 126 185 245 270 254 219 253 284 229 286 307 288 298 318 325 347 341 246 230 247 268 307 285 271 284 284 294 306 300 325 7 359 341 331 325 317 329 346 359 353 9 46 54 124 159 179 185 198 249 266 268 256 249 242 239 243 240 232 225 226 230
289 295 303 309 316 321 326 330 331 335 337 341 345 338 329 322 317 321 323 329 328 55 88 138 156 150 153 169 179 205 300 288 304 324 274 224 244 287 284 275 288 311 4 357 339 273 267 261 286 289 285 299 309 308 310 316 306 350 356 339 335 340 333 336 338 323 313 349 38 36 82 136 166 187 203 215 232 246 243 235 229 229 228 221 220 225 227 233
284 289 297 304 312 315 322 328 328 331 335 340 345 340 330 317 312 321 320 320 310 192 137 125 133 138 158 195 180 225 259 242 295 346 315 247 254 278 278 259 257 288 349 343 312 289 289 262 264 300 306 310 325 320 320 340 329 332 357 353 356 354 331 329 325 310 303 321 14 26 62 114 157 181 194 199 212 234 235 229 227 231 227 215 211 220 228 229
280 286 292 299 306 309 317 325 324 328 334 339 341 333 324 314 310 321 316 314 298 206 194 155 137 104 128 151 142 236 235 223 239 272 268 270 282 276 251 238 259 306 3 339 302 304 310 291 284 295 307 310 314 297 316 335 330 334 5 4 357 348 330 338 339 333 339 347 351 358 13 34 146 188 206 209 209 217 221 223 227 233 237 229 219 223 236 238
276 283 289 294 299 302 310 320 320 324 332 334 331 323 320 316 311 316 314 315 309 208 207 187 174 153 160 178 195 201 131 175 209 222 244 271 322 305 221 238 249 218 4 323 297 305 299 306 305 290 301 299 272 279 296 309 316 320 336 343 335 324 326 340 343 344 357 347 330 330 337 334 220 204 222 217 212 214 217 224 229 233 240 243 239 238 238 239
272 278 285 290 295 298 304 316 318 321 328 329 326 321 316 314 305 302 317 344 345 204 203 188 182 202 210 221 242 244 244 220 207 228 257 269 316 305 250 260 244 229 309 298 281 284 283 301 313 308 311 301 285 293 297 299 301 298 300 307 317 320 326 331 321 307 317 333 325 324 331 286 234 205 203 202 213 220 220 230 231 230 239 246 247 244 235 234
269 274 281 287 292 297 302 312 317 319 323 325 324 319 306 301 285 273 295 75 219 247 225 202 195 212 234 247 260 256 253 253 229 235 261 271 311 320 300 282 256 256 269 263 275 281 268 266 271 295 304 289 283 287 294 298 292 288 289 291 296 303 314 324 312 296 303 317 307 305 306 265 226 206 198 199 216 229 229 236 233 229 239 247 247 242 234 236
266 270 276 282 288 293 300 309 317 318 320 323 322 315 291 268 239 233 244 188 217 284 236 217 213 231 258 271 279 265 235 229 228 235 247 255 263 327 359 319 279 270 247 246 275 285 270 249 252 273 282 278 276 276 289 296 290 286 285 287 289 291 303 317 312 302 309 308 294 300 293 250 172 204 204 206 222 234 236 232 226 227 234 240 240 236 234 238
265 268 272 278 284 289 296 304 313 318 320 322 318 303 270 241 215 193 163 195 239 255 239 225 214 231 260 280 285 245 198 196 216 231 235 244 250 256 290 299 278 270 262 269 288 298 281 245 252 269 274 278 277 278 288 293 291 294 292 299 305 304 313 324 324 328 346 297 299 2 328 301 222 199 209 233 256 248 259 263 250 241 235 233 233 232 234 239
263 266 271 275 281 286 294 302 310 316 319 320 309 284 254 229 223 222 209 200 228 238 265 234 213 234 261 272 283 239 214 211 215 225 238 249 252 255 274 292 280 274 277 285 291 291 285 268 268 272 270 271 269 270 279 282 308 318 307 322 332 331 336 331 325 340 240 258 256 358 342 308 272 250 240 260 270 268 279 285 281 267 245 232 226 225 232 238
261 265 270 274 280 284 292 301 305 311 317 314 298 271 240 212 232 239 223 204 197 279 313 251 225 250 247 240 258 253 259 263 243 240 244 248 251 254 267 289 285 275 274 279 279 278 287 284 272 273 274 265 257 256 257 265 306 317 312 325 356 33 22 301 284 306 282 273 255 287 317 303 283 291 267 266 277 281 289 282 261 243 234 231 226 223 229 234
262 265 270 274 279 283 291 298 297 303 309 301 287 260 230 218 241 244 213 198 290 305 311 265 235 245 245 251 264 260 268 274 270 266 254 243 245 246 251 274 288 281 274 272 266 263 280 289 279 287 290 279 265 260 262 274 290 299 292 280 259 241 232 242 250 229 260 281 278 289 303 289 285 297 284 284 282 282 289 273 225 217 233 240 233 226 229 234
262 266 270 275 279 285 290 293 291 293 294 287 271 248 235 237 252 246 213 204 264 276 268 242 240 248 248 257 260 252 260 268 272 271 255 239 232 229 237 262 280 283 267 253 245 248 258 261 269 279 287 301 289 263 265 276 277 276 271 270 274 262 244 252 255 241 259 293 294 282 269 269 288 293 287 282 274 271 273 255 234 234 241 239 232 230 235 241
262 266 270 272 277 284 287 288 285 282 279 270 259 253 252 255 259 239 206 193 223 281 269 254 252 259 256 251 252 253 262 266 264 256 238 224 221 228 250 266 268 272 260 245 241 244 239 232 244 259 279 299 290 263 267 271 265 265 272 270 276 284 279 277 269 256 265 291 281 260 264 282 294 299 289 270 258 258 251 244 248 249 248 245 242 241 240 242
262 263 265 268 272 279 284 282 274 269 264 252 255 264 268 265 259 242 226 226 244 282 287 285 269 261 259 251 247 249 266 273 260 243 227 216 225 241 258 266 260 258 258 259 263 256 244 240 240 251 274 275 267 272 267 257 258 272 285 284 270 261 266 270 270 289 4 284 259 246 261 283 291 296 290 260 249 257 252 244 242 245 252 255 252 245 241 246
257 258 261 264 267 272 276 275 268 263 259 256 261 269 273 269 260 250 246 244 243 249 265 272 270 266 266 263 254 248 256 274 276 264 249 237 241 246 247 252 252 254 260 262 261 255 250 255 254 255 265 260 261 272 251 232 246 272 285 284 267 251 244 248 251 282 288 251 262 252 251 265 273 271 275 281 280 273 260 244 233 238 250 259 259 251 252 258
252 255 258 260 261 262 265 263 259 259 260 264 269 270 271 267 251 240 236 232 242 262 266 265 268 267 263 262 259 256 258 263 273 284 278 261 251 249 249 249 244 256 269 257 250 256 256 255 256 258 258 251 254 257 236 232 250 278 286 267 253 254 255 255 248 223 202 226 254 268 248 249 269 275 275 282 290 293 281 255 237 240 247 252 252 249 255 261
250 254 257 257 255 256 258 253 249 257 261 261 267 270 271 267 248 225 216 230 256 265 266 269 271 267 263 264 264 257 255 258 261 271 277 267 256 255 260 258 253 265 276 263 258 264 256 247 255 265 262 254 252 245 231 241 265 288 293 279 264 258 250 252 253 239 224 212 183 186 258 254 263 275 273 274 283 291 290 261 237 238 244 245 245 249 259 264
249 253 256 257 254 252 252 248 252 262 261 263 272 274 270 260 238 212 200 222 261 257 258 267 268 267 268 270 270 261 253 253 253 251 253 252 249 252 264 270 263 268 273 267 260 258 253 257 265 269 267 265 263 250 231 243 270 288 291 288 278 257 243 242 250 237 236 246 239 227 257 267 273 282 284 285 291 291 283 251 235 237 242 247 252 258 264 268
245 248 253 255 253 251 249 250 260 265 262 269 275 273 270 255 234 218 206 207 255 266 264 264 263 265 264 263 272 270 260 255 251 246 244 241 235 236 246 260 261 263 270 271 269 270 272 275 272 267 267 270 271 263 249 250 263 272 272 275 275 252 239 238 241 248 257 265 270 267 260 274 286 294 295 295 291 279 266 250 241 238 241 248 254 257 261 264
241 242 247 251 249 248 248 251 260 265 266 272 267 262 266 250 229 224 222 225 270 281 268 264 265 265 260 259 270 275 271 265 257 251 249 246 242 236 236 248 259 263 267 270 276 280 276 269 262 260 264 267 266 266 264 263 264 264 260 261 261 252 248 254 263 270 269 263 267 269 252 276 289 295 298 298 283 265 256 246 243 246 250 253 253 254 256 259
238 238 242 247 247 244 246 251 261 266 265 266 264 262 261 244 228 226 233 244 269 274 266 267 267 264 260 261 268 270 270 271 266 261 258 256 253 245 239 245 256 260 262 268 281 283 272 257 248 255 271 271 266 265 264 259 254 249 239 231 239 247 258 273 279 275 265 259 260 255 254 278 289 293 292 289 276 264 248 236 248 262 265 264 263 263 264 265
235 234 234 239 244 244 247 254 259 257 256 262 267 267 261 250 239 239 248 252 253 259 270 272 266 263 262 263 268 264 257 262 272 273 270 268 265 257 247 245 253 256 252 254 275 281 273 260 248 242 236 246 260 263 258 253 242 229 216 206 216 239 255 280 291 280 262 261 257 250 264 282 289 292 290 284 278 263 240 240 260 269 268 271 274 275 273 273
231 231 231 234 240 244 247 250 249 247 249 256 261 257 254 256 251 248 253 255 253 258 269 270 265 265 264 265 269 266 255 255 267 273 273 272 273 269 258 248 246 248 243 244 261 273 269 265 262 258 257 260 265 266 264 264 256 244 239 238 245 256 262 277 287 278 273 278 268 261 270 279 281 289 292 282 274 256 241 253 273 272 271 277 282 282 282 286
229 230 230 230 234 240 242 239 236 235 237 244 248 243 241 254 258 251 247 249 253 257 263 265 264 266 267 266 269 268 262 258 261 266 269 269 270 271 265 254 246 247 250 255 266 266 258 259 262 265 270 272 273 271 269 267 262 255 255 259 262 264 266 270 274 274 277 278 270 269 274 276 276 280 280 274 267 252 250 270 283 278 275 280 285 288 290 296
229 228 228 228 228 230 232 229 230 232 233 238 243 245 245 251 260 263 257 251 247 249 262 269 266 265 271 268 263 266 267 264 262 263 265 268 268 268 268 262 255 256 260 263 265 261 256 257 257 261 270 275 274 273 270 268 265 260 258 260 263 264 266 266 264 265 271 271 272 277 278 276 277 277 271 267 265 260 265 277 283 279 276 280 287 290 290 293
227 226 227 230 230 230 228 224 224 225 225 233 239 241 246 252 260 266 269 269 264 257 263 274 271 265 267 265 262 265 267 266 267 265 263 265 266 268 270 268 264 265 266 265 261 257 260 267 265 262 268 272 272 270 266 264 264 262 259 257 258 259 263 266 263 261 264 267 272 278 277 275 277 280 279 275 271 269 270 273 274 273 277 283 285 284 284 287
227 226 227 231 232 232 232 229 222 218 220 231 240 242 249 260 268 271 269 271 272 266 263 269 272 265 257 256 261 265 264 266 270 270 266 264 263 266 272 268 262 261 262 264 264 261 263 269 269 266 266 265 262 263 262 259 258 260 258 256 257 258 260 263 262 260 262 265 269 274 275 274 274 279 284 279 273 272 271 268 268 268 273 279 279 276 278 279
231 231 231 234 235 233 233 232 229 228 230 236 242 247 255 264 272 278 275 265 264 270 270 271 273 269 261 258 260 265 266 266 267 267 266 264 263 264 266 265 261 258 257 261 266 268 266 266 269 270 268 264 260 259 261 262 265 266 261 255 256 259 259 259 256 255 260 267 270 271 270 272 275 281 284 276 272 276 274 265 261 260 263 269 270 269 269 269
235 238 237 238 240 238 235 234 235 238 241 243 247 252 259 266 270 278 280 266 252 265 278 276 274 272 270 267 266 267 268 265 264 265 266 267 266 265 265 265 264 265 265 264 267 270 269 269 272 273 270 269 265 259 265 273 276 271 263 259 261 262 259 259 259 258 261 265 267 268 269 272 277 280 279 274 274 280 277 263 254 255 261 265 266 263 262 267